Weather History for KNPA - January, 2013

Change the Weather History Date:

Sunday, January 13, 2013

  Actual Average (KPNS) Record (KPNS)
Temperature  
Mean Temperature 69 °F 51 °F  
Max Temperature 72 °F 60 °F 78 °F (2000)
Min Temperature 66 °F 42 °F 15 °F (1981)
Degree Days  
Heating Degree Days 0 14  
Month to date heating degree days 182  
Since 1 July heating degree days 764  
Cooling Degree Days 4 0  
Month to date cooling degree days 0  
Year to date cooling degree days 0  
Growing Degree Days 19 (Base 50)    
Moisture  
Dew Point 68 °F    
Average Humidity 98    
Maximum Humidity 100    
Minimum Humidity 87    
Precipitation  
Precipitation 0.00 in 0.15 in 3.63 in (1932)
Month to date precipitation 1.80  
Year to date precipitation 1.80  
Snow  
Snow 0.00 in 0.00 in - ()
Month to date snowfall 0.0  
Since 1 July snowfall 0.0  
Snow Depth -    
Sea Level Pressure  
Sea Level Pressure 30.00 in    
Wind  
Wind Speed 10 mph (SSE)    
Max Wind Speed 14 mph    
Max Gust Speed -    
Visibility 7 miles    
Events      
T = Trace of Precipitation, MM = Missing Value Source: NWS Daily Summary

Daily Weather History Graph

Daily Weather History Graph

Search for Another Location

Airport or City:

Trip Planner

Search our weather history database for the weather conditions in past years. The results will help you decide how hot, cold, wet, or windy it might be!

Date:

Astronomy

Jan. 13, 2013 Rise Set
Actual Time 6:46 AM CST 5:09 PM CST
Civil Twilight 6:20 AM CST 5:35 PM CST
Nautical Twilight 5:51 AM CST 6:05 PM CST
Astronomical Twilight 5:22 AM CST 6:34 PM CST
Moon 7:56 AM CST (1/13) 7:33 PM CST (1/13)
Length of Visible Light 11h 14m
Length of Day
10h 22m
Waxing Crescent, 5% of the Moon is Illuminated
Jan 13
Waxing Crescent
Jan 18
First Quarter
Jan 26
Full
Feb 3
Last Quarter
Feb 10
New

Hourly Weather History & Observations

Time (CST) Temp. Dew Point Humidity Pressure Visibility Wind Dir Wind Speed Gust Speed Precip Events Conditions
12:56 AM 68.0 °F 68.0 °F 100% 30.01 in 7.0 mi SSE 9.2 mph - N/A   Overcast
1:56 AM 66.9 °F 66.9 °F 100% 29.99 in 7.0 mi SSE 9.2 mph - N/A   Overcast
2:12 AM 66.2 °F 66.2 °F 100% 29.98 in 6.0 mi SSE 9.2 mph - N/A   Overcast
2:43 AM 66.2 °F 66.2 °F 100% 29.98 in 7.0 mi SSE 9.2 mph - N/A   Overcast
2:56 AM 66.9 °F 66.9 °F 100% 29.98 in 6.0 mi SSE 9.2 mph - N/A   Overcast
3:05 AM 66.2 °F 66.2 °F 100% 29.96 in 7.0 mi SSE 11.5 mph - N/A   Overcast
3:41 AM 66.2 °F 66.2 °F 100% 29.96 in 6.0 mi SSE 8.1 mph - N/A   Overcast
3:56 AM 66.9 °F 66.9 °F 100% 29.98 in 6.0 mi South 9.2 mph - N/A   Overcast
4:04 AM 66.2 °F 66.2 °F 100% 29.97 in 6.0 mi SSE 9.2 mph - N/A   Overcast
4:56 AM 66.9 °F 66.9 °F 100% 29.99 in 6.0 mi SSE 8.1 mph - N/A   Overcast
5:13 AM 66.2 °F 66.2 °F 100% 29.98 in 6.0 mi SSE 8.1 mph - N/A   Overcast
5:22 AM 66.2 °F 66.2 °F 100% 29.98 in 6.0 mi SSE 10.4 mph - N/A   Overcast
5:34 AM 66.2 °F 66.2 °F 100% 29.98 in 7.0 mi SSE 11.5 mph - N/A   Mostly Cloudy
5:44 AM 66.2 °F 66.2 °F 100% 29.99 in 7.0 mi SSE 10.4 mph - N/A   Scattered Clouds
5:56 AM 66.9 °F 66.9 °F 100% 30.00 in 7.0 mi SSE 11.5 mph - N/A   Clear
6:56 AM 66.9 °F 66.9 °F 100% 30.00 in 6.0 mi SSE 11.5 mph - N/A   Clear
7:56 AM 66.9 °F 66.9 °F 100% 30.02 in 7.0 mi SSE 9.2 mph - N/A   Clear
8:56 AM 69.1 °F 68.0 °F 96% 30.03 in 7.0 mi SSE 12.7 mph - N/A   Scattered Clouds
9:03 AM 69.8 °F 69.8 °F 100% 30.02 in 7.0 mi SSE 12.7 mph - N/A   Mostly Cloudy
9:06 AM 69.8 °F 69.8 °F 100% 30.02 in 8.0 mi SSE 11.5 mph - N/A   Mostly Cloudy
9:32 AM 69.8 °F 68.0 °F 94% 30.02 in 8.0 mi SSE 11.5 mph - N/A   Overcast
9:41 AM 69.8 °F 68.0 °F 94% 30.02 in 8.0 mi SSE 12.7 mph - N/A   Overcast
9:56 AM 70.0 °F 69.1 °F 97% 30.04 in 8.0 mi SSE 12.7 mph - N/A   Overcast
10:56 AM 71.1 °F 69.1 °F 93% 30.02 in 9.0 mi SSE 13.8 mph - N/A   Overcast
11:22 AM 71.6 °F 68.0 °F 88% 30.01 in 10.0 mi SSE 11.5 mph - N/A   Overcast
11:56 AM 72.0 °F 68.0 °F 87% 30.01 in 10.0 mi SSE 12.7 mph - N/A   Overcast
12:56 PM 71.1 °F 68.0 °F 90% 30.00 in 9.0 mi SSE 11.5 mph - N/A   Overcast
1:56 PM 71.1 °F 68.0 °F 90% 30.00 in 9.0 mi South 9.2 mph - N/A   Overcast
2:56 PM 71.1 °F 68.0 °F 90% 29.99 in 9.0 mi SSE 12.7 mph - N/A   Overcast
3:56 PM 70.0 °F 68.0 °F 93% 30.00 in 9.0 mi SSE 11.5 mph - N/A   Overcast
4:56 PM 69.1 °F 68.0 °F 96% 30.02 in 7.0 mi SSE 8.1 mph - N/A   Overcast
5:56 PM 68.0 °F 68.0 °F 100% 30.03 in 8.0 mi South 9.2 mph - N/A   Overcast
6:56 PM 68.0 °F 68.0 °F 100% 30.03 in 7.0 mi SSE 10.4 mph - N/A   Overcast
7:56 PM 68.0 °F 68.0 °F 100% 30.02 in 6.0 mi SSE 11.5 mph - N/A   Mostly Cloudy
8:03 PM 68.0 °F 68.0 °F 100% 30.02 in 6.0 mi SSE 11.5 mph - N/A   Overcast
8:23 PM 68.0 °F 68.0 °F 100% 30.02 in 6.0 mi South 10.4 mph - N/A   Overcast
8:56 PM 68.0 °F 68.0 °F 100% 30.03 in 6.0 mi South 10.4 mph - N/A   Overcast
9:56 PM 68.0 °F 68.0 °F 100% 30.04 in 5.0 mi South 9.2 mph - N/A   Overcast
10:56 PM 68.0 °F 68.0 °F 100% 30.03 in 5.0 mi SSE 10.4 mph - N/A   Overcast
11:56 PM 68.0 °F 68.0 °F 100% 30.02 in 4.0 mi South 9.2 mph - N/A   Overcast